Weather in Ibadan

Nigeria     7°25′25″N   3°56′05″E
temp.,
°C
wind,
m/s
gust,
m/s
humid.,
%
clouds,
%
prec.,
mm/h
press.,
hPa
HPBL,
m
21 april, wed
wed2101:00+24ssw13955 0.0 100998
04:00+23sw269837 0.0 1008246
07:00+23ssw149741 0.0 1010190
10:00+30sw34645 0.0 1011899
13:00+34s334725 0.0 10091567
16:00+36s224164 0.0 10062384
19:00+28s4107177 0.2 1006612
22:00+24nnw4891100 2.4 1012364
22 april, thu
thu2201:00+22nnw4996100 14.5 1012378
04:00+22sse2494100 1.4 1009120
07:00+22e249564 1.4 1012161
10:00+28ssw236650 0.0 1012519
13:00+32sw3452100 0.0 10091045
16:00+34s2245100 0.0 10071760
19:00+28s496929 0.0 1008371
22:00+25s269117 0.1 1010250
23 april, fri
fri2301:00+24ssw289396 0.1 1010392
04:00+24sw269612 0.0 1009256
07:00+24ssw169629 0.0 1011271
10:00+29ssw356599 0.0 1012934
13:00+30sw236292 0.0 1010818
16:00+34sw2248100 0.0 10071975
19:00+27s31079100 0.4 1008502
22:00+25ssw2991100 0.6 1011366
24 april, sat
sat2401:00+21nw41395100 8.7 1012523
04:00+22ese2293100 3.4 100962
07:00+22ssw3793100 3.5 1009141
10:00+25s41083100 0.0 1009315
13:00+31se3453100 0.0 1008852
16:00+28se3465100 0.0 1008710
19:00+25sse2279100 0.0 100939
22:00+24s279343 0.0 1011222
25 april, sun
sun2501:00+23s269998 0.0 1010215
04:00+23s1699100 0.0 1009201
07:00+23sw1598100 0.0 1011206
10:00+29ssw346673 0.0 10121095
13:00+33ssw335076 0.0 10101696
16:00+33s435261 0.0 10081358
19:00+28s497645 0.3 1008498
22:00+25sse1289100 0.0 101275